Total_Precipitation_Accumulation
2.54 2.48 3.01 4.02 4.63 4.14 3.67 2.92 2.47 2.31 1.94 1.51 1.17 1.15 1.45 1.88 2.36 2.81 3.14 2.95 2.05 1.60 1.69 2.51 3.17 2.87 2.36 2.04 1.91 1.93 1.86 1.96 1.90 1.87 1.68 1.55 1.42 1.30 1.15 1.03 1.08 1.06 0.97 0.91 0.87 0.95 0.98 0.99 1.18
1.89 2.79 3.65 4.61 4.24 3.58 3.35 2.90 2.65 2.18 1.58 1.25 0.91 0.84 0.96 1.03 1.10 1.74 2.96 2.86 1.81 1.47 1.55 1.89 2.64 2.52 2.10 1.90 1.89 1.99 2.01 2.11 2.01 1.83 1.60 1.50 1.49 1.42 1.27 1.17 1.27 1.11 0.99 0.94 0.93 0.99 1.09 1.06 1.17
2.04 3.20 4.23 4.47 3.34 3.05 3.15 2.92 2.43 1.80 1.29 1.17 0.96 0.84 1.04 1.31 1.40 2.00 2.73 2.13 1.56 1.43 1.53 2.05 2.62 2.36 2.05 1.87 2.04 2.23 2.22 2.17 1.96 1.70 1.49 1.49 1.53 1.50 1.44 1.40 1.35 1.11 1.02 0.97 0.94 1.01 1.04 1.03 1.07
2.40 3.58 3.90 3.58 2.93 2.52 2.57 2.56 2.02 1.62 1.24 0.89 0.88 0.90 0.96 1.38 1.44 1.75 1.82 1.53 1.34 1.45 1.55 1.94 2.45 2.30 2.08 1.90 2.13 2.25 2.27 2.23 2.10 1.81 1.55 1.50 1.50 1.47 1.44 1.46 1.31 1.16 1.05 0.96 0.94 0.98 1.04 1.01 1.03
2.85 3.77 3.70 3.17 2.77 2.45 2.16 1.82 1.60 1.50 1.25 0.96 0.83 1.05 1.42 1.80 1.59 1.50 1.46 1.39 1.23 1.32 1.36 1.59 2.19 2.24 2.08 1.98 2.19 2.25 2.29 2.35 2.29 1.97 1.76 1.65 1.52 1.47 1.46 1.48 1.34 1.26 1.17 1.10 1.07 1.10 1.09 1.05 1.10
3.20 3.30 3.51 3.10 2.73 2.48 2.37 1.74 1.53 1.46 1.15 0.94 0.88 1.11 1.80 2.14 1.82 1.60 1.42 1.51 1.45 1.41 1.33 1.32 1.94 2.18 2.15 2.18 2.22 2.22 2.23 2.26 2.28 2.04 1.85 1.67 1.53 1.47 1.55 1.58 1.40 1.31 1.18 1.12 1.13 1.19 1.23 1.19 1.17
3.11 3.20 3.20 2.64 2.65 2.83 2.45 1.74 1.57 1.42 1.33 1.07 0.80 1.20 1.89 2.26 1.90 1.59 1.50 1.54 1.64 1.57 1.50 1.39 1.51 1.81 2.14 2.19 2.06 2.05 2.02 2.02 2.13 1.93 1.81 1.62 1.50 1.39 1.45 1.50 1.39 1.34 1.31 1.27 1.25 1.35 1.36 1.22 1.20
2.28 2.60 2.64 2.56 2.68 2.89 2.14 1.62 1.30 1.24 1.22 0.91 0.75 1.20 1.72 1.74 1.60 1.57 1.68 1.83 1.98 1.76 1.63 1.43 1.36 1.44 1.53 1.75 1.89 2.02 2.06 2.03 2.09 1.90 1.69 1.54 1.44 1.31 1.35 1.31 1.31 1.40 1.44 1.50 1.49 1.49 1.42 1.36 1.27
2.07 2.73 3.00 2.95 2.67 2.27 1.50 1.36 1.16 0.94 1.01 0.90 0.72 0.79 0.98 1.06 1.22 1.46 1.55 1.69 1.80 1.54 1.45 1.48 1.48 1.50 1.55 1.50 1.56 1.84 1.96 1.98 1.85 1.78 1.67 1.48 1.21 1.07 1.15 1.15 1.38 1.51 1.60 1.66 1.66 1.61 1.58 1.43 1.24
2.16 2.87 2.84 2.25 1.97 1.66 1.19 1.15 1.05 1.06 1.11 1.04 0.82 0.78 0.90 0.98 1.20 1.38 1.33 1.37 1.34 1.24 1.22 1.29 1.32 1.45 1.50 1.36 1.56 1.84 1.69 1.59 1.35 1.37 1.24 1.24 1.15 1.08 0.92 1.08 1.44 1.58 1.59 1.59 1.64 1.69 1.50 1.21 0.91
1.74 2.24 2.00 1.77 1.55 1.27 1.09 1.13 1.02 1.04 1.19 1.08 0.87 0.88 1.09 1.17 1.19 1.16 1.11 1.15 1.08 1.04 1.03 0.99 1.05 1.11 1.24 1.40 1.64 1.93 1.99 1.79 1.57 1.32 1.23 1.25 1.14 1.02 0.93 0.94 1.10 1.23 1.26 1.13 1.14 1.16 1.02 0.93 0.85
1.48 1.47 1.46 1.66 1.41 1.31 1.09 1.05 1.07 1.04 1.09 0.96 0.79 0.80 0.98 1.16 1.25 1.13 0.96 0.91 0.83 0.87 0.97 0.81 0.71 0.86 1.03 1.15 1.28 1.56 1.63 1.56 1.43 1.22 1.14 1.23 1.22 1.09 1.05 1.05 1.09 1.12 1.10 1.12 1.08 1.12 1.07 0.90 0.81
1.76 1.53 1.32 1.31 1.31 1.37 1.15 1.07 1.05 1.04 0.95 0.84 0.79 0.91 1.00 1.03 1.06 1.00 0.88 0.78 0.77 0.84 0.91 0.83 0.72 0.71 0.78 0.84 0.95 1.10 1.27 1.34 1.36 1.31 1.11 1.13 1.21 1.17 1.16 1.12 1.16 1.06 0.98 1.03 1.08 1.10 1.12 1.02 0.88
1.57 1.41 1.41 1.41 1.32 1.32 1.32 1.07 1.04 1.25 0.96 0.84 0.91 0.99 0.97 0.93 0.92 0.98 0.91 0.83 0.74 0.74 0.86 0.86 0.76 0.75 0.77 0.74 0.74 0.75 0.90 1.08 1.19 1.23 1.13 1.15 1.22 1.21 1.29 1.23 1.17 1.10 1.01 1.03 1.20 1.15 1.17 1.15 1.08
1.46 1.62 1.57 1.49 1.39 1.36 1.30 1.41 1.31 1.20 0.99 0.93 1.00 0.95 0.92 0.88 0.86 0.95 0.88 0.79 0.72 0.70 0.76 0.82 0.81 0.85 0.87 0.82 0.80 0.66 0.71 0.82 0.98 1.12 1.12 1.19 1.15 1.10 1.18 1.19 1.12 1.11 1.12 1.13 1.17 1.20 1.26 1.18 1.10
1.75 1.93 2.03 1.72 1.47 1.27 1.30 1.71 1.58 1.29 1.06 1.08 1.04 0.94 0.90 0.86 0.81 0.85 0.83 0.81 0.78 0.78 0.83 0.88 0.88 0.91 0.94 0.96 0.94 0.86 0.89 0.97 1.03 1.18 1.16 1.14 1.20 1.17 1.16 1.18 1.17 1.21 1.25 1.23 1.25 1.32 1.31 1.26 1.25
1.93 1.94 1.79 1.66 1.34 1.12 1.16 1.44 1.46 1.32 1.08 0.96 0.94 0.87 0.79 0.70 0.65 0.64 0.64 0.65 0.71 0.75 0.78 0.82 0.89 0.91 0.93 0.97 1.06 1.19 1.23 1.22 1.21 1.27 1.22 1.14 1.17 1.23 1.35 1.38 1.40 1.37 1.38 1.38 1.33 1.36 1.27 1.27 1.27
1.85 1.55 1.35 1.30 1.20 1.06 0.97 1.07 1.12 1.14 1.01 0.83 0.73 0.69 0.68 0.59 0.54 0.49 0.47 0.50 0.57 0.64 0.70 0.76 0.82 0.98 1.09 1.15 1.16 1.32 1.38 1.45 1.52 1.54 1.39 1.27 1.33 1.47 1.67 1.76 1.65 1.62 1.62 1.60 1.54 1.59 1.48 1.36 1.38
1.36 1.33 1.20 1.01 0.97 1.02 0.91 0.89 0.93 0.92 0.90 0.78 0.66 0.53 0.51 0.50 0.48 0.46 0.42 0.44 0.49 0.54 0.58 0.66 0.73 0.90 0.99 1.04 1.17 1.37 1.54 1.71 1.86 1.93 1.80 1.65 1.63 1.80 1.95 1.87 1.95 1.97 1.84 1.84 1.90 1.93 1.89 1.71 1.57
1.19 1.22 1.08 0.91 0.78 0.80 0.80 0.82 0.83 0.78 0.77 0.66 0.55 0.47 0.39 0.33 0.33 0.32 0.29 0.32 0.34 0.36 0.40 0.49 0.57 0.64 0.77 0.94 1.20 1.40 1.69 1.77 1.84 1.96 2.01 1.93 1.86 2.03 2.08 2.16 2.23 2.26 2.26 2.19 2.08 2.20 2.35 2.08 1.84
0.98 1.05 0.96 0.89 0.77 0.70 0.69 0.85 0.80 0.73 0.68 0.60 0.47 0.39 0.31 0.25 0.21 0.18 0.18 0.23 0.29 0.28 0.30 0.39 0.51 0.63 0.85 1.07 1.40 1.69 1.97 2.06 2.11 2.05 2.09 2.14 2.18 2.25 2.30 2.36 2.41 2.41 2.25 2.24 2.34 2.48 2.82 2.63 2.26
0.96 0.71 0.65 0.66 0.82 0.84 0.71 1.01 0.74 0.60 0.59 0.53 0.45 0.41 0.33 0.25 0.20 0.17 0.17 0.19 0.22 0.26 0.32 0.45 0.64 0.85 1.10 1.42 1.80 2.07 2.32 2.44 2.28 2.23 2.23 2.21 2.16 2.21 2.33 2.34 2.33 2.29 2.23 2.28 2.34 2.39 2.81 3.02 2.73
0.66 0.55 0.64 0.68 0.74 0.68 0.51 0.70 0.64 0.50 0.55 0.46 0.40 0.39 0.38 0.32 0.25 0.22 0.23 0.26 0.32 0.41 0.49 0.67 0.94 1.24 1.50 1.74 1.93 2.17 2.31 2.31 2.26 2.22 2.21 2.12 2.08 2.07 2.10 2.10 2.21 2.23 2.27 2.32 2.49 2.61 2.87 2.90 2.89
0.49 0.58 0.71 0.73 0.79 0.84 0.44 0.54 0.66 0.51 0.46 0.42 0.38 0.36 0.32 0.30 0.30 0.30 0.33 0.41 0.50 0.59 0.75 0.93 1.12 1.43 1.60 1.73 1.83 1.99 2.15 2.19 2.18 2.17 2.20 2.19 2.15 2.05 1.97 1.91 2.00 2.14 2.28 2.33 2.43 2.59 2.84 2.94 3.01
0.48 0.81 1.14 1.18 1.12 0.84 0.41 0.58 0.68 0.50 0.39 0.34 0.35 0.34 0.31 0.35 0.40 0.41 0.52 0.66 0.74 0.80 0.91 1.08 1.17 1.36 1.47 1.52 1.63 1.75 1.81 1.86 1.88 1.88 1.87 1.80 1.76 1.77 1.83 1.88 1.96 2.10 2.19 2.26 2.38 2.52 2.57 2.69 2.93
0.43 0.68 1.14 1.25 1.08 0.78 0.54 0.81 0.73 0.48 0.38 0.36 0.37 0.33 0.37 0.49 0.58 0.69 0.82 0.92 1.00 1.02 1.00 1.06 1.20 1.24 1.22 1.28 1.28 1.39 1.48 1.54 1.58 1.54 1.54 1.59 1.62 1.65 1.61 1.66 1.74 1.96 2.14 2.22 2.31 2.32 2.31 2.36 2.55
0.44 0.48 0.55 0.81 0.77 0.79 0.74 0.92 0.84 0.50 0.42 0.41 0.40 0.38 0.45 0.63 0.84 1.07 1.25 1.33 1.42 1.36 1.20 1.08 1.08 1.06 1.04 1.14 1.20 1.24 1.31 1.35 1.35 1.35 1.28 1.39 1.43 1.43 1.39 1.43 1.48 1.60 1.82 2.05 2.20 2.17 2.09 2.05 2.21
0.37 0.48 0.62 0.94 1.11 1.07 0.95 1.07 1.08 0.72 0.57 0.49 0.52 0.60 0.73 0.95 1.28 1.56 1.79 1.92 1.90 1.70 1.47 1.25 1.07 0.98 0.94 1.00 1.10 1.18 1.21 1.21 1.16 1.17 1.10 1.15 1.25 1.24 1.20 1.22 1.31 1.47 1.60 1.78 1.99 2.08 2.02 2.01 2.09
0.39 0.56 0.71 0.91 0.94 1.21 1.37 1.35 1.09 0.95 0.82 0.78 0.87 1.05 1.24 1.50 1.70 1.89 2.05 2.12 1.89 1.72 1.45 1.20 1.04 1.03 1.04 1.07 1.11 1.14 1.10 1.08 1.05 1.00 0.94 0.99 1.07 1.07 1.08 1.23 1.29 1.36 1.46 1.66 1.92 2.09 2.10 2.02 2.03
0.49 0.73 0.94 1.30 1.20 1.11 1.35 1.41 1.02 0.92 0.94 0.98 1.10 1.19 1.33 1.46 1.47 1.56 1.67 1.65 1.62 1.59 1.40 1.21 1.11 1.10 1.14 1.18 1.22 1.17 1.09 1.02 1.00 0.96 0.87 0.85 0.81 0.81 0.94 1.07 1.11 1.16 1.22 1.42 1.71 1.91 1.96 1.94 1.84